Home   Weather   Lethbridge   Past weeks
Flag for Canada

Past Weather in Lethbridge, Alberta, Canada — March 2016

Now
61 °F

Scattered clouds.


Feels Like: 61 °F
Forecast: 72 / 54 °F
Wind: 8 mph from Southwest

Location: Lethbridge

Current Time: Jul 16, 2019 at 9:00:20 am

Latest Report: Jul 16, 2019 at 8:00 am


Visibility: 60 mi

Pressure: 29.90 "Hg (26.97 "Hg at 872m altitude)

Humidity: 68%

Dew Point: 50 °F

Location of LethbridgeLocation

March 2016 Weather in Lethbridge — Graph

°F

High & Low Weather Summary for March 2016

 TemperatureHumidityPressure
High66 °F (Mar 20, 4:00 pm)100% (Mar 15, 1:00 am)30.49 "Hg (Mar 15, 1:00 am)
Low14 °F (Mar 19, 1:00 am)12% (Mar 19, 5:00 pm)29.34 "Hg (Mar 6, 2:00 pm)
Average40 °F59%29.90 "Hg
* Reported Mar 1 12:00 am — Mar 31 11:00 pm, Lethbridge. Weather by CustomWeather, © 2019

Note: Actual official high and low records may vary slightly from our data, if they occured in-between our weather recording intervals... More about our weather records

Advertising

Lethbridge Weather History for March 1, 2016

Scroll right to see more
 ConditionsComfort  
Time TempWeatherWind HumidityBarometerVisibility
12:00 am
Tue, Mar 1
16 °FClear.8 mph93%30.20 "Hg9 mi
1:00 am16 °FClear.7 mph93%30.20 "Hg9 mi
2:00 am19 °FClear.9 mph86%30.19 "Hg9 mi
3:00 am19 °FClear.8 mph86%30.17 "Hg9 mi
4:00 am25 °FPassing clouds.8 mph80%30.14 "Hg9 mi
5:00 am23 °FClear.8 mph80%30.14 "Hg9 mi
6:00 am21 °FPassing clouds.9 mph86%30.14 "Hg15 mi
7:00 am23 °FPassing clouds.9 mph80%30.14 "Hg30 mi
8:00 am27 °FPartly sunny.6 mph86%30.13 "Hg40 mi
9:00 am32 °FPartly sunny.6 mph80%30.11 "Hg40 mi
10:00 am36 °FPartly sunny.12 mph65%30.08 "Hg40 mi
11:00 am41 °FPartly sunny.5 mph57%30.05 "Hg40 mi
12:00 pm45 °FPartly sunny.8 mph39%30.01 "Hg40 mi
1:00 pm46 °FBroken clouds.16 mph34%29.97 "Hg40 mi
2:00 pm46 °FPartly sunny.9 mph34%29.92 "Hg40 mi
3:00 pm46 °FPartly sunny.8 mph37%29.89 "Hg40 mi
4:00 pm45 °FPartly sunny.16 mph49%29.85 "Hg40 mi
5:00 pm45 °FCloudy.14 mph49%29.82 "Hg40 mi
6:00 pm41 °FMostly cloudy.10 mph57%29.80 "Hg40 mi
7:00 pm39 °FMostly cloudy.9 mph61%29.78 "Hg40 mi
8:00 pm37 °FMostly cloudy.9 mph65%29.75 "Hg40 mi
9:00 pm36 °FOvercast.9 mph70%29.72 "Hg40 mi
10:00 pm36 °FMostly cloudy.8 mph75%29.68 "Hg40 mi
11:00 pm32 °FPassing clouds.8 mph87%29.67 "Hg9 mi
Weather by CustomWeather, © 2019

See weather overview

LIVE PARTIAL LUNAR ECLIPSE – Watch the eclipse as it happens